Location: Marne
(34.0056°N, 117.9064°W)
Time: 22:00:56
(UTC+00:00)

Cosmos 1048 Rocket - Pass Details

Date: 18 January 2020
Orbit: 744 x 791 km, 74.0° (Epoch: 19 February)

Event Time Altitude Azimuth Distance (km) Brightness Sun altitude
Rises 01:55:25 0° 349° (N) 3,200 7.1 -10.1°
Reaches altitude 10° 01:57:53 10° 355° (N) 2,268 6.3 -10.6°
Maximum altitude 02:02:49 47° 70° (ENE) 977 4.1 -11.6°
Drops below altitude 10° 02:07:43 10° 144° (SE) 2,250 6.2 -12.6°
Sets 02:10:09 0° 150° (SSE) 3,171 7.1 -13.0°
